Regional Weather Roundup
Issued by NWS

Home | Current Version | Previous Version | Text Only | Print | Product List | Glossary On
Versions: 1 2 3 4 5 6 7 8 9 10 11 12 13 14 15 16 17 18 19 20 21 22 23 24 25 26 27 28 29 30 31 32 33 34 35 36 37 38 39 40 41 42 43 44 45 46 47 48 49 50
000
ASUS43 KDTX 250710
RWRMI
MICHIGAN HOURLY REGIONAL WEATHER ROUNDUP
NATIONAL WEATHER SERVICE DETROIT/PONTIAC MI
300 AM EDT SAT MAR 25 2017

NOTE: "FAIR" INDICATES FEW OR NO CLOUDS BELOW 12,000 FEET WITH NO
SIGNIFICANT WEATHER AND/OR OBSTRUCTION TO VISIBILITY.

MIZ047>049-052>055-059>063-066>070-074>076-081>083-250800-
SOUTHEAST LOWER MICHIGAN

CITY           SKY/WX    TMP DP  RH WIND       PRES   REMARKS
ADRIAN         CLOUDY    48  42  80 E12       30.07R
ALMA           CLOUDY    37  36  97 NE10      30.14S WCI  30
ANN ARBOR      CLOUDY    46  40  79 E3        30.09R
BAD AXE        CLOUDY    35  33  94 NE8       30.15S WCI  28
CARO           CLOUDY    38  35  90 NE5       30.12F WCI  34
DETROIT CITY   RAIN      44  40  85 N9        30.12R
DETROIT        CLOUDY    47  38  71 NE8       30.10S
FLINT          LGT RAIN  39  37  92 NE7       30.10F WCI  34
GROSSE ILE     CLOUDY    46  38  75 NE5       30.08R
HILLSDALE      CLOUDY    46  43  87 E7        30.04F
HOWELL         LGT RAIN  41  39  93 N5        30.10S

CITY           SKY/WX    TMP DP  RH WIND       PRES   REMARKS
JACKSON        CLOUDY    45  43  93 E8        30.06F
LAMBERTVILLE   CLOUDY    47  40  76 E3        30.09R
LANSING        CLOUDY    40  36  86 NE9       30.11R WCI  34
LAPEER         RAIN      39  37  93 NE3       30.11F
MASON          LGT RAIN  42  41  95 E6        30.08R
MONROE         CLOUDY    47  41  79 CALM      30.08S
MT. CLEMENS    LGT RAIN  41  41  99 N8        30.09R
PONTIAC        LGT RAIN  40  32  73 NE9       30.08S WCI  34
PORT HOPE        N/A     34  33  96 NE10      30.15S WCI  26
PORT HURON     LGT RAIN  37  36  93 N10G16    30.13R WCI  30
TRI CITIES     CLOUDY    36  35  96 NE16      30.15S WCI  26
MIDLAND        DRIZZLE   37  33  85 NE9       30.16R WCI  31
TROY           MIX PCPN  42  39  88 NE6       30.10F
SAGINAW HB     DRIZZLE   36  34  93 N13       30.13F WCI  27
$$
MIZ043>046-050>051-056>058-064>065-071>073-077>080-250800-
SOUTHWEST LOWER MICHIGAN

CITY           SKY/WX    TMP DP  RH WIND       PRES   REMARKS
BATTLE CREEK   CLOUDY    45  44  97 NE7       30.06S FOG
BENTON HARBOR  CLOUDY    43  40  89 E6        30.03F FOG
BIG RAPIDS     CLOUDY    38  35  89 E7        30.12F WCI  32
COLDWATER      CLOUDY    51  45  78 E3        30.04S
FREMONT        DRIZZLE   42  38  88 E5        30.10S
HOLLAND        CLOUDY    44  38  79 E9        30.07S
GRAND RAPIDS   CLOUDY    41  35  79 E16       30.08F
IONIA          CLOUDY    38  35  87 NE13      30.09F WCI  30
KALAMAZOO      CLOUDY    47  44  90 NE7       30.06R FOG
LUDINGTON      CLOUDY    36  36 100 NE7       30.13R WCI  30
MARSHALL       CLOUDY    45  45  98 NE3       30.05S FOG
MOUNT PLEASANT RAIN      37  35  90 NE6       30.15R WCI  33
MUSKEGON       CLOUDY    44  38  79 E13       30.11R
SOUTH HAVEN    CLOUDY    47  46  97 E7        30.03S FOG
$$
MIZ016>042-250800-
NORTHERN LOWER MICHIGAN

CITY           SKY/WX    TMP DP  RH WIND       PRES   REMARKS
ALPENA         CLOUDY    34  34 100 NE6       30.21S WCI  29
BEAVER ISLAND  CLOUDY    34  33  94 NE7       30.23R WCI  28
BELLAIRE       CLOUDY    34  33  94 CALM      30.20R
CADILLAC       LGT RAIN  33  32  96 E9        30.14R WCI  26
CHARLEVOIX     CLOUDY    35  35 100 E7        30.23S WCI  29
FRANKFORT      LGT RAIN  35  32  90 CALM      30.18R
GAYLORD        LGT RAIN  35  31  85 E9        30.16S WCI  28
GRAYLING       LGT RAIN  34  32  93 E6        30.17R WCI  29
HARBOR SPRINGS CLOUDY    34  33  96 NE7       30.21R WCI  28
HOUGHTON LAKE  LGT RAIN  34  32  92 NE7       30.18R FOG     WCI  28
MANISTEE       LGT RAIN  36  34  92 NE10      30.14F WCI  28
OSCODA         CLOUDY    35  34  95 NE8       30.19R WCI  29
PELLSTON       CLOUDY    35  31  85 E7        30.22R WCI  29
ROGERS CITY    CLOUDY    35  33  93 E5          N/A  WCI  30
TRAVERSE CITY  CLOUDY    36  34  92 NE7       30.18R FOG     WCI  30
$$
MIZ007>008-015-250800-
EASTERN UPPER MICHIGAN

CITY           SKY/WX    TMP DP  RH WIND       PRES   REMARKS
KINROSS        CLOUDY    33  30  88 NE6       30.23S WCI  28
MACKINAC ISLAN CLOUDY    33  33 100 NE6       30.22R WCI  27
NEWBERRY       CLOUDY    31  30  97 NE3       30.23R
S. S. MARIE    CLOUDY    36  29  75 NE8       30.23S WCI  30
MUNISING         N/A     33  31  92 N7        30.25R WCI  27
$$
MIZ004>006-011>014-085-250800-
CENTRAL UPPER MICHIGAN

CITY           SKY/WX    TMP DP  RH WIND       PRES   REMARKS
MANISTIQUE     CLOUDY    34  32  93 NE5       30.24R WCI  30
ESCANABA       CLOUDY    34  32  92 NE5       30.25R WCI  30
MENOMINEE        N/A    N/A N/A N/A MISG        N/A
SAWYER-GWINN   CLOUDY    31  29  93 NE7       30.24R WCI  24
$$
MIZ001>003-009>011-084-250800-
WESTERN UPPER MICHIGAN

CITY           SKY/WX    TMP DP  RH WIND       PRES   REMARKS
IRON MOUNTAIN  CLOUDY    34  29  82 E7        30.22R WCI  28
HOUGHTON       CLOUDY    33  24  69 E8        30.25R WCI  26
COPPER HARBOR    N/A     33  25  72 VRB7G18   30.29R WCI  27
IRONWOOD       CLOUDY    32  30  92 E8        30.25R WCI  25
$$

ABBREVIATIONS USED IN REMARKS
   TC - TEMPERATURE IN CELSIUS
  WCI - WIND CHILL INDEX
   HX - HEAT INDEX
  VSB - VISIBILITY





USA.gov is the U.S. government's official web portal to all federal, state and local government web resources and services.